Location: Unspecified
(0.0000°N, 0.0000°E)
Time: 11:43:42
(UTC+00:00)

TIMED - Pass Details

Date: 02 August 2021
Orbit: 602 x 603 km, 74.1° (Epoch: 21 September)

Event Time Altitude Azimuth Distance (km) Brightness Sun altitude
Rises 03:32:35 0° 10° (N) 2,836 8.3 -36.3°
Reaches altitude 10° 03:35:09 10° 24° (NNE) 1,937 7.5 -35.7°
Enters shadow 03:35:32 12° 27° (NNE) 1,813 7.4 -35.6°
